Location: Casilda
(33.0440°S, 61.1680°W)
Time: 18:22:28
(UTC-03:00)

ISS - Pass Details

Date: 23 November 2020
Orbit: 418 x 420 km, 51.6° (Epoch: 04 December)

Event Time Altitude Azimuth Distance (km) Brightness Sun altitude
Exits shadow 04:43:45 - 0° (N) 1,571 -1.2 -12.9°
Reaches altitude 10° 04:43:58 10° 2° (N) 1,504 -1.3 -12.9°
Maximum altitude 04:46:32 20° 52° (NE) 1,038 -1.6 -12.5°
Drops below altitude 10° 04:49:08 10° 101° (ESE) 1,520 0.2 -12.0°
Sets 04:51:36 0° 118° (ESE) 2,394 2.2 -11.6°
